WetterOnline ( http://www.wetteronline.de )

Wetter aktuell Freising

Aktuelles Wetter: Weihenstephan-Dürnast (478m)

6-stündlich | Neueste Meldungen
Ortszeit Temperatur Wetter
Di, 19.02. 1:00 -1.6° C wolkenlos
Mo, 18.02. 19:00 3.7° C wolkenlos
Mo, 18.02. 13:00 9.5° C wolkenlos
Mo, 18.02. 7:00 -4.0° C wolkenlos
Mo, 18.02. 1:00 -2.0° C leicht bewölkt
So, 17.02. 19:00 4.4° C fast wolkenlos
So, 17.02. 13:00 11.1° C fast wolkenlos
So, 17.02. 7:00 -3.8° C wolkenlos
Ortszeit Temperatur Wetter
Di, 19.02. 4:00 -1.4° C wolkig
Di, 19.02. 3:50 -1.4° C wolkig
Di, 19.02. 3:40 -1.6° C wolkig
Di, 19.02. 3:30 -1.4° C wolkig
Di, 19.02. 3:20 -1.4° C wolkig
Di, 19.02. 3:10 -1.3° C wolkig
Di, 19.02. 3:00 -0.9° C wolkig
Di, 19.02. 2:30 -0.6° C leicht bewölkt
Di, 19.02. 2:00 -0.4° C wolkenlos
Di, 19.02. 1:30 -1.3° C wolkenlos
Di, 19.02. 1:00 -1.6° C wolkenlos
Ortszeit Relative Feuchte Sichtweite
Di, 19.02. 1:00 94% 10 km
Mo, 18.02. 19:00 73% 40 km
Mo, 18.02. 13:00 41% 30 km
Mo, 18.02. 7:00 96% 21 km
Mo, 18.02. 1:00 94% 7 km
So, 17.02. 19:00 74% 30 km
So, 17.02. 13:00 43% 50 km
So, 17.02. 7:00 96% 10 km
Ortszeit Relative Feuchte Sichtweite
Di, 19.02. 4:00 91% 13 km
Di, 19.02. 3:50 91% -
Di, 19.02. 3:40 92% -
Di, 19.02. 3:30 92% 12 km
Di, 19.02. 3:20 92% -
Di, 19.02. 3:10 90% -
Di, 19.02. 3:00 88% 12 km
Di, 19.02. 2:30 91% 14 km
Di, 19.02. 2:00 92% 14 km
Di, 19.02. 1:30 91% 12 km
Di, 19.02. 1:00 94% 10 km
Ortszeit Niederschlagsmenge Niederschlagsart
Di, 19.02. 1:00 0.0 l/m2 in 6 Std. -
Mo, 18.02. 19:00 0.0 l/m2 in 12 Std. -
Mo, 18.02. 13:00 0.0 l/m2 in 6 Std. -
Mo, 18.02. 7:00 0.0 l/m2 in 12 Std. -
Mo, 18.02. 1:00 0.0 l/m2 in 6 Std. -
So, 17.02. 19:00 0.0 l/m2 in 12 Std. -
So, 17.02. 13:00 0.0 l/m2 in 6 Std. -
So, 17.02. 7:00 0.0 l/m2 in 12 Std. -
Ortszeit Niederschlagsmenge Niederschlagsart
Di, 19.02. 4:00 0.0 l/m2 in 1 Std. -
Di, 19.02. 3:50 keine Meldung -
Di, 19.02. 3:40 keine Meldung -
Di, 19.02. 3:30 0.0 l/m2 in 1 Std. -
Di, 19.02. 3:20 keine Meldung -
Di, 19.02. 3:10 keine Meldung -
Di, 19.02. 3:00 0.0 l/m2 in 1 Std. -
Di, 19.02. 2:30 0.0 l/m2 in 1 Std. -
Di, 19.02. 2:00 0.0 l/m2 in 1 Std. -
Di, 19.02. 1:30 0.0 l/m2 in 1 Std. -
Di, 19.02. 1:00 0.0 l/m2 in 1 Std. -
Ortszeit Stärke Spitze Richtung
km/h Bft. km/h Grad Sektor
Di, 19.02. 1:00 4 1 4 280° W
Mo, 18.02. 19:00 4 1 14 290° W
Mo, 18.02. 13:00 7 2 11 140° SO
Mo, 18.02. 7:00 0 0 4 - -
Mo, 18.02. 1:00 0 0 4 - -
So, 17.02. 19:00 0 0 14 - -
So, 17.02. 13:00 7 2 11 130° SO
So, 17.02. 7:00 0 0 4 - -
Ortszeit Stärke Spitze Richtung
km/h Bft. km/h Grad Sektor
Di, 19.02. 4:00 0 0 4 - -
Di, 19.02. 3:50 0 0 - 290° W
Di, 19.02. 3:40 2 1 - 20° N
Di, 19.02. 3:30 2 1 4 280° W
Di, 19.02. 3:20 2 1 - 280° W
Di, 19.02. 3:10 0 0 - 250° W
Di, 19.02. 3:00 0 0 7 - -
Di, 19.02. 2:30 4 1 4 300° NW
Di, 19.02. 2:00 4 1 7 260° W
Di, 19.02. 1:30 0 0 4 - -
Di, 19.02. 1:00 4 1 4 280° W
Ortszeit Untergrenze Bedeckung Gattung
total tief tief mittel hoch
Di, 19.02. 1:00 - 0/8 0/8 - - -
Mo, 18.02. 19:00 - 0/8 0/8 - - -
Mo, 18.02. 13:00 - 0/8 0/8 - - -
Mo, 18.02. 7:00 - 0/8 0/8 - - -
Mo, 18.02. 1:00 10500 m 3/8 0/8 - - -
So, 17.02. 19:00 10500 m 2/8 0/8 - - -
So, 17.02. 13:00 9000 m 2/8 0/8 - - -
So, 17.02. 7:00 - 0/8 0/8 - - -
Ortszeit Bedeckungsgrad in Achtel und Wolkenuntergrenze
Di, 19.02. 4:00 8(9000m) 8(9000m)
Di, 19.02. 3:50 8(9000m) 8(9000m)
Di, 19.02. 3:40 7(9000m) 8(9000m)
Di, 19.02. 3:30 8(9000m) 8(9000m)
Di, 19.02. 3:20 8(9000m)
Di, 19.02. 3:10 8(9000m)
Di, 19.02. 3:00 7(9000m)
Di, 19.02. 2:30 6(9000m)
Di, 19.02. 2:00 1(9000m)
Di, 19.02. 1:30 keine Wolken
Di, 19.02. 1:00 keine Wolken
Ortszeit Luftdruck NN (hPa) Tendenz (hPa in 3 Std.)
Di, 19.02. 1:00 1022 + 0,2
Mo, 18.02. 19:00 1021 - 0,4
Mo, 18.02. 13:00 1022 - 1,4
Mo, 18.02. 7:00 1026 - 0,4
Mo, 18.02. 1:00 1027 - 0,3
So, 17.02. 19:00 1026 - 0,2
So, 17.02. 13:00 1027 - 1,1
So, 17.02. 7:00 1031 0,0
Ortszeit Luftdruck NN (hPa) Tendenz (hPa in 3 Std.)
Di, 19.02. 4:00 1023 + 0,4
Di, 19.02. 3:50 1023 keine Meldung
Di, 19.02. 3:40 1023 keine Meldung
Di, 19.02. 3:30 1022 + 0,4
Di, 19.02. 3:20 1022 keine Meldung
Di, 19.02. 3:10 1022 keine Meldung
Di, 19.02. 3:00 1022 + 0,6
Di, 19.02. 2:30 1022 + 0,4
Di, 19.02. 2:00 1022 + 0,4
Di, 19.02. 1:30 1022 + 0,2
Di, 19.02. 1:00 1022 + 0,2
Ortszeit Schneehöhe (cm)
Di, 19.02. 1:00 0
Mo, 18.02. 19:00 -
Mo, 18.02. 13:00 -
Mo, 18.02. 7:00 1
Mo, 18.02. 1:00 1
So, 17.02. 19:00 -
So, 17.02. 13:00 -
So, 17.02. 7:00 1
Ortszeit Schneehöhe (cm)
Di, 19.02. 4:00 0
Di, 19.02. 3:50 0
Di, 19.02. 3:40 0
Di, 19.02. 3:30 0
Di, 19.02. 3:20 0
Di, 19.02. 3:10 0
Di, 19.02. 3:00 0
Di, 19.02. 2:30 0
Di, 19.02. 2:00 0
Di, 19.02. 1:30 0
Di, 19.02. 1:00 0
Link zu dieser Seite / Seite empfehlen

Das Wetter in ...